Regional Weather Roundup
Issued by NWS State College, PA

Home | Current Version | Previous Version | Text Only | Print | Product List | Glossary On
Versions: 1 2 3 4 5 6 7 8 9 10 11 12 13 14 15 16 17 18 19 20 21 22 23 24 25 26 27 28 29 30 31 32 33 34 35 36 37 38 39 40 41 42 43 44 45 46 47 48 49 50
000
ASUS41 KCTP 070310
RWRCTP

REGIONAL WEATHER ROUNDUP
NATIONAL WEATHER SERVICE STATE COLLEGE PA
1100 PM EDT MON JUL 06 2015

Note: "fair" indicates few or no clouds below 12,000 feet with no
significant weather and/or obstructions to visibility.

* = STATION THAT DOES NOT REPORT PRECIPITATION /E.G. RAIN...SNOW...ETC/
    THUNDER OR FOG.

PAZ002>004-007>009-013>016-020>023-029>032-070400-
WESTERN PENNSYLVANIA

CITY           SKY/WX    TMP DP  RH WIND       PRES   REMARKS
ERIE           CLEAR     73  64  73 CALM      29.98S
MEADVILLE      CLEAR     70  65  84 CALM      30.02S
FRANKLIN*      CLOUDY    70  64  83 SE6       30.05F
NEW CASTLE     FAIR      69  69 100 CALM      30.04R
BEAVER COUNTY  NOT AVBL
BUTLER*        CLEAR     70  66  88 CALM      30.05R
PITTSBURGH INT PTCLDY    71  67  87 CALM      30.03R
PITTSBURGH     MOCLDY    69  64  84 S6        30.03R
INDIANA*       CLOUDY    70  70 100 CALM      30.08S
LATROBE        NOT AVBL
WASHINGTON CO* NOT AVBL
$$

PAZ004>006-010>012-017>019-024>028-033>037-041-042-045-046-049>053-070400-
CENTRAL PENNSYLVANIA

CITY           SKY/WX    TMP DP  RH WIND       PRES   REMARKS
BRADFORD       CLEAR     68  65  90 VRB3      30.07S
DUBOIS         PTCLDY    70  66  87 SE5       30.06R
CLEARFIELD     MOCLDY    69  67  93 CALM      30.06S
JOHNSTOWN      CLOUDY    69  66  90 S7        30.09R
ALTOONA        MOCLDY    68  66  93 CALM      30.07S
STATE COLLEGE  MOCLDY    70  68  92 CALM      30.05F
WILLIAMSPORT   CLOUDY    76  69  79 SE9       30.01F
SELINSGROVE    CLOUDY    75  70  84 S7        30.04S
FT INDIANTOWN  MOCLDY    72  72 100 NE3       30.05F
CAPITAL CITY   MOCLDY    73  68  84 SE3       30.03S
HARRISBURG     MOCLDY    72  68  87 SE5       30.02F
YORK           PTCLDY    71  69  93 SE5       30.04S
$$

PAZ038>040-043-044-047-048-054-055-060>062-067>071-070400-
EASTERN PENNSYLVANIA

CITY           SKY/WX    TMP DP  RH WIND       PRES   REMARKS
SCRANTON       MOCLDY    75  67  76 CALM      30.07F
MOUNT POCONO   FOG       69 N/A N/A SE8       30.14S VSB 1/4
ALLENTOWN      MOCLDY    74  71  91 E5        30.07F
QUAKERTOWN*    MOCLDY    73  73 100 E3        30.09F
READING        PTCLDY    75  71  87 SE8       30.05S
LANCASTER      PTCLDY    74  72  93 SE9       30.05S
COATESVILLE    CLOUDY    73  73 100 SE6       30.08S
POTTSTOWN      PTCLDY    74  71  91 CALM      30.08F
BLUE BELL      MOCLDY    77  72  83 SE6       30.07S
DOYLESTOWN     MOCLDY    73  71  93 CALM      30.08F
WILLOW GROVE   NOT AVBL
NORTH PHILA    CLOUDY    78  70  76 SE6       30.09F
PHILADELPHIA   MOCLDY    77  72  84 SE7       30.07S
$$


USA.gov is the U.S. government's official web portal to all federal, state and local government web resources and services.